CZ-6A DEB, 57575

Orbit data source: Space-Track

CZ-6A DEB, 57575 is space debris in SSO originally from a launch on Fri, 11 Nov 2022 UTC launched from the Taiyaun Space Center, China (TSC). Debris objects in space refer to the collection of defunct objects orbiting the Earth. Examples of debris include non-operational satellites, rocket bodies, and fragments generated from explosions, collisions, or faulty payload assembly.

Loading next visibility...
Identifier
57575, 2022-151AHS
Orbit
SSO
Country
Flag of CNCN / PRC
Related business
Manufacturer
SAST
Mission
Spacecraft
Bus & Motor
Unknown
Mass
Unknown
Launch date (UTC)
2022-11-11 (3 years ago)
Launch vehicle
Unknown
Launch site
Taiyaun Space Center, China (TSC)
Object type
Payload
Rocket body
Debris
Shape & HBR
Unknown shape, 0.1 m
Radar Cross Section
Small (<0.1 m²)

Expand to show TLE details & history
Last TLE update: 23 hours ago

TLE from 23 hours ago
0 CZ-6A DEB
1 57575U 22151AHS 26129.99388545  .00002725  00000-0  12511-2 0  9999
2 57575  98.8080 136.4413 0046038  50.4290 310.0940 14.21519033165836
Epoch: 2026-05-09T23:51Z
TLE epoch observation values (Epoch: 2026-05-09T23:51:11.702Z)
Latitude
-0.00003°
Longitude
-89.1608°
Altitude
801.876 km
Speed
7.464 km/s
True Right ascension
09h 05m 45s
True Declination
0° 00' 00"
Sunlit
Object was in daylight at epoch
Visualization orbit readout
Latitude
Unknown
Longitude
Unknown
Altitude
Unknown
Speed
Unknown
Apparent Right ascension
Unknown
Apparent Declination
Unknown
Sunlit
N/A
Visualization observer readout
Local Sidereal Time
07:23:17
Azimuth
Unknown
Elevation
Unknown
Doppler factor
Unknown
Orbital elements
Apogee altitude
850.508 km
Perigee altitude
784.255 km
Semi-major axis
7,195.518 km
Eccentricity
0.0046
Inclination
98.808°
RAAN
136.4413°
Arg. of periapsis
50.429°
True anomaly
309.68893°
Mean anomaly
310.094°
Eccentric anomaly
309.89161°
Mean motion
3.5559 °/min
Orbital period
101.24 mins
BSTAR
0.0012511
Loading maneuver chart data...
Computing Atmospheric mass density...
Loading historical data...
Loading historical data...
Loading historical data...
Loading historical data...
Loading historical data...
Loading historical data...
Loading historical data...

Documentation

Showing up to 5 results
|